Precipitable_Water
0.39 0.26 0.24 0.21 0.22 0.24 0.24 0.27 0.23 0.16 0.19 0.24 0.25 0.27 0.29 0.33 0.36 0.41 0.44 0.53 0.77 0.77 0.79 0.82 0.87 1.02 1.02 1.05 1.08 1.21 1.29 1.29 1.34 1.28 1.30 1.43 1.64 1.43 1.39 1.41 1.34 1.32 1.32 1.36 1.39 1.42 1.41 1.43 1.43 1.40 1.41 1.47 1.51 1.50 1.46 1.40 1.33 1.25 1.22 1.09 1.12 1.14 1.19 1.21 1.18 1.14 1.13 1.17 1.14 1.21 1.17 1.14 1.18 1.29 1.36 1.42 1.45 1.47 1.52 1.62 1.62 1.59 1.71 1.73 1.71 1.74
0.38 0.25 0.24 0.27 0.26 0.28 0.28 0.26 0.25 0.21 0.19 0.20 0.26 0.25 0.25 0.29 0.31 0.39 0.41 0.50 0.73 0.72 0.74 0.85 0.87 0.90 1.07 1.07 1.09 1.21 1.22 1.19 1.24 1.25 1.32 1.57 1.59 1.51 1.46 1.42 1.33 1.33 1.41 1.42 1.37 1.42 1.41 1.41 1.40 1.41 1.39 1.41 1.41 1.46 1.47 1.38 1.37 1.26 1.25 1.10 1.11 1.13 1.12 1.23 1.17 1.11 1.09 1.17 1.12 1.13 1.14 1.12 1.10 1.16 1.25 1.29 1.39 1.45 1.49 1.59 1.61 1.62 1.67 1.64 1.65 1.68
0.28 0.24 0.24 0.29 0.32 0.31 0.32 0.29 0.26 0.22 0.18 0.19 0.21 0.25 0.26 0.28 0.32 0.38 0.40 0.49 0.59 0.70 0.67 0.78 0.80 0.85 0.95 1.03 1.09 1.11 1.12 1.23 1.29 1.32 1.32 1.57 1.54 1.41 1.43 1.37 1.37 1.41 1.39 1.42 1.37 1.37 1.37 1.38 1.38 1.36 1.37 1.36 1.40 1.42 1.46 1.45 1.39 1.33 1.24 1.18 1.13 1.13 1.09 1.17 1.20 1.11 1.03 1.10 1.13 1.09 1.10 1.12 1.11 1.16 1.23 1.30 1.37 1.39 1.44 1.50 1.55 1.63 1.64 1.63 1.60 1.64
0.23 0.25 0.28 0.30 0.35 0.34 0.30 0.29 0.27 0.23 0.21 0.20 0.19 0.17 0.20 0.29 0.32 0.29 0.36 0.43 0.47 0.58 0.62 0.67 0.69 0.79 0.91 1.01 1.06 1.10 1.15 1.25 1.30 1.35 1.33 1.70 1.47 1.35 1.36 1.37 1.37 1.43 1.42 1.39 1.35 1.33 1.34 1.37 1.36 1.35 1.34 1.34 1.37 1.40 1.43 1.46 1.41 1.37 1.28 1.21 1.14 1.14 1.11 1.15 1.18 1.13 1.07 1.07 1.10 1.09 1.12 1.12 1.16 1.10 1.18 1.25 1.31 1.33 1.37 1.40 1.49 1.56 1.58 1.58 1.58 1.57
0.23 0.29 0.32 0.32 0.34 0.34 0.29 0.30 0.29 0.25 0.19 0.18 0.17 0.16 0.16 0.20 0.27 0.31 0.37 0.41 0.43 0.49 0.60 0.64 0.61 0.66 0.79 0.84 0.94 1.08 1.13 1.13 1.21 1.27 1.29 1.48 1.51 1.39 1.40 1.42 1.44 1.44 1.43 1.45 1.40 1.38 1.36 1.32 1.32 1.32 1.34 1.35 1.32 1.35 1.36 1.40 1.40 1.38 1.33 1.29 1.17 1.14 1.11 1.16 1.17 1.13 1.08 1.07 1.07 1.05 1.11 1.11 1.19 1.22 1.14 1.14 1.20 1.24 1.29 1.37 1.44 1.44 1.52 1.53 1.55 1.55
0.26 0.29 0.30 0.30 0.30 0.31 0.30 0.28 0.28 0.26 0.22 0.19 0.16 0.16 0.18 0.18 0.18 0.24 0.30 0.37 0.36 0.39 0.51 0.52 0.42 0.46 0.65 0.75 0.80 0.96 1.03 1.02 1.15 1.19 1.20 1.31 1.48 1.47 1.39 1.38 1.47 1.53 1.60 1.56 1.47 1.41 1.38 1.37 1.35 1.36 1.35 1.33 1.32 1.32 1.36 1.41 1.43 1.41 1.40 1.37 1.24 1.14 1.11 1.12 1.18 1.14 1.08 1.04 1.01 0.95 0.95 0.94 1.00 1.08 1.09 1.01 1.06 1.14 1.17 1.25 1.40 1.49 1.51 1.51 1.51 1.57
0.27 0.31 0.29 0.27 0.26 0.26 0.27 0.26 0.29 0.29 0.24 0.20 0.19 0.20 0.18 0.15 0.13 0.14 0.24 0.30 0.33 0.33 0.42 0.48 0.36 0.35 0.52 0.60 0.70 0.82 0.97 0.96 1.11 1.15 1.19 1.39 1.47 1.38 1.36 1.41 1.42 1.47 1.54 1.54 1.55 1.49 1.36 1.39 1.38 1.35 1.32 1.33 1.31 1.33 1.39 1.41 1.42 1.43 1.43 1.42 1.31 1.20 1.10 1.11 1.17 1.10 1.08 1.06 1.04 0.94 0.89 0.92 0.90 0.97 1.03 1.08 1.08 1.13 1.22 1.25 1.29 1.44 1.52 1.54 1.52 1.55
0.27 0.28 0.29 0.28 0.26 0.24 0.23 0.23 0.27 0.31 0.25 0.19 0.22 0.22 0.20 0.16 0.11 0.13 0.21 0.28 0.31 0.40 0.43 0.46 0.43 0.34 0.39 0.53 0.67 0.74 0.77 0.90 1.00 1.05 1.17 1.28 1.31 1.28 1.30 1.38 1.40 1.49 1.58 1.56 1.55 1.58 1.56 1.49 1.41 1.32 1.31 1.32 1.32 1.37 1.39 1.39 1.41 1.42 1.41 1.42 1.37 1.30 1.15 1.11 1.17 1.09 1.04 1.02 1.03 0.96 0.89 0.91 0.89 0.87 0.93 1.00 1.03 1.06 1.11 1.11 1.19 1.33 1.49 1.54 1.55 1.56
0.30 0.25 0.25 0.25 0.25 0.24 0.22 0.24 0.28 0.29 0.25 0.22 0.22 0.23 0.21 0.20 0.16 0.12 0.17 0.28 0.33 0.33 0.29 0.36 0.45 0.37 0.35 0.44 0.62 0.70 0.67 0.72 0.86 1.06 1.10 1.20 1.33 1.28 1.29 1.43 1.51 1.48 1.53 1.58 1.53 1.54 1.54 1.41 1.45 1.44 1.38 1.36 1.38 1.38 1.36 1.36 1.40 1.45 1.46 1.44 1.43 1.33 1.21 1.15 1.15 1.09 1.04 1.02 1.00 0.97 0.91 0.87 0.88 0.89 0.90 0.96 0.98 1.00 1.05 1.10 1.12 1.23 1.40 1.53 1.53 1.55
0.37 0.30 0.27 0.26 0.26 0.23 0.25 0.27 0.26 0.25 0.21 0.25 0.26 0.27 0.26 0.24 0.21 0.16 0.12 0.15 0.22 0.25 0.20 0.28 0.35 0.33 0.34 0.42 0.47 0.62 0.66 0.68 0.76 0.90 1.02 1.16 1.31 1.32 1.29 1.30 1.41 1.49 1.48 1.54 1.55 1.64 1.52 1.43 1.41 1.47 1.49 1.44 1.39 1.40 1.40 1.42 1.44 1.45 1.46 1.44 1.40 1.33 1.27 1.22 1.18 1.12 1.05 1.02 0.99 0.94 0.91 0.86 0.86 0.87 0.90 0.94 0.99 0.95 1.00 1.04 1.12 1.15 1.32 1.40 1.47 1.49
0.42 0.42 0.35 0.28 0.25 0.28 0.28 0.28 0.27 0.26 0.25 0.28 0.28 0.25 0.26 0.26 0.25 0.23 0.17 0.13 0.13 0.12 0.14 0.21 0.29 0.31 0.28 0.35 0.44 0.50 0.59 0.68 0.76 0.84 0.96 1.10 1.26 1.32 1.29 1.30 1.27 1.40 1.55 1.65 1.64 1.58 1.51 1.57 1.51 1.62 1.53 1.45 1.44 1.43 1.42 1.42 1.42 1.44 1.44 1.44 1.39 1.34 1.32 1.29 1.24 1.18 1.09 1.04 0.99 0.93 0.89 0.86 0.85 0.87 0.87 0.88 0.96 1.03 1.00 0.98 1.06 1.11 1.23 1.33 1.35 1.47
0.32 0.39 0.37 0.35 0.33 0.33 0.32 0.28 0.29 0.30 0.29 0.27 0.26 0.25 0.24 0.24 0.26 0.23 0.20 0.17 0.11 0.09 0.12 0.15 0.19 0.27 0.25 0.34 0.46 0.52 0.59 0.70 0.75 0.76 0.87 0.98 1.17 1.21 1.21 1.25 1.27 1.41 1.49 1.61 1.61 1.56 1.52 1.53 1.55 1.45 1.39 1.44 1.44 1.41 1.41 1.41 1.43 1.42 1.44 1.44 1.39 1.38 1.34 1.32 1.31 1.24 1.18 1.08 1.03 0.97 0.92 0.86 0.89 0.90 0.88 0.86 0.89 1.03 1.01 0.99 0.98 1.09 1.17 1.20 1.26 1.35
0.23 0.25 0.34 0.41 0.43 0.35 0.33 0.27 0.27 0.29 0.29 0.26 0.26 0.26 0.21 0.19 0.21 0.18 0.18 0.14 0.11 0.09 0.12 0.14 0.17 0.20 0.23 0.33 0.46 0.53 0.57 0.63 0.74 0.79 0.86 0.96 1.07 1.19 1.18 1.21 1.20 1.30 1.48 1.49 1.50 1.55 1.51 1.44 1.53 1.51 1.49 1.42 1.37 1.35 1.38 1.36 1.37 1.41 1.43 1.43 1.36 1.33 1.35 1.33 1.33 1.26 1.22 1.14 1.08 1.01 0.94 0.90 0.92 0.91 0.90 0.89 0.88 1.01 1.04 1.03 1.00 1.00 1.02 1.12 1.11 1.19
0.19 0.23 0.25 0.31 0.41 0.40 0.35 0.26 0.24 0.25 0.28 0.26 0.24 0.24 0.22 0.18 0.19 0.16 0.18 0.17 0.15 0.14 0.13 0.14 0.18 0.16 0.23 0.29 0.38 0.50 0.55 0.62 0.67 0.79 0.86 0.91 1.00 1.11 1.12 1.17 1.15 1.27 1.50 1.48 1.44 1.54 1.57 1.57 1.50 1.43 1.42 1.36 1.33 1.32 1.36 1.37 1.38 1.41 1.41 1.42 1.38 1.33 1.36 1.36 1.35 1.31 1.25 1.19 1.14 1.09 1.03 1.00 0.97 0.92 0.91 0.91 0.90 0.97 1.04 1.05 0.98 0.96 0.99 1.02 1.07 1.11
0.15 0.17 0.21 0.23 0.26 0.40 0.34 0.30 0.27 0.26 0.29 0.28 0.29 0.27 0.24 0.23 0.20 0.18 0.18 0.16 0.14 0.16 0.19 0.14 0.13 0.14 0.16 0.18 0.34 0.39 0.54 0.58 0.65 0.70 0.79 0.83 0.95 1.10 1.17 1.20 1.16 1.12 1.45 1.60 1.53 1.57 1.61 1.54 1.50 1.47 1.39 1.36 1.34 1.32 1.33 1.37 1.40 1.41 1.39 1.40 1.38 1.36 1.36 1.34 1.36 1.34 1.25 1.23 1.20 1.16 1.12 1.09 1.06 1.00 0.94 0.94 0.93 0.96 1.01 1.02 1.00 0.94 0.95 1.03 1.09 1.13
0.22 0.20 0.25 0.27 0.25 0.36 0.33 0.34 0.32 0.30 0.31 0.33 0.32 0.31 0.27 0.24 0.27 0.21 0.24 0.22 0.21 0.20 0.18 0.19 0.14 0.13 0.17 0.26 0.28 0.35 0.43 0.50 0.61 0.64 0.69 0.74 0.81 0.99 1.09 1.25 1.23 1.14 1.09 1.38 1.45 1.54 1.67 1.73 1.67 1.51 1.45 1.44 1.40 1.35 1.32 1.34 1.39 1.39 1.38 1.38 1.38 1.35 1.35 1.36 1.37 1.31 1.27 1.26 1.24 1.23 1.18 1.14 1.12 1.07 1.04 1.00 1.00 1.00 1.02 1.04 1.00 1.00 0.92 0.93 1.09 1.22
0.19 0.18 0.28 0.34 0.34 0.31 0.33 0.35 0.31 0.30 0.22 0.29 0.31 0.25 0.26 0.32 0.29 0.25 0.26 0.32 0.32 0.26 0.21 0.26 0.23 0.20 0.19 0.22 0.26 0.30 0.32 0.39 0.47 0.58 0.68 0.73 0.74 0.82 0.95 1.09 1.18 1.15 1.20 1.34 1.36 1.39 1.58 1.67 1.65 1.50 1.47 1.46 1.45 1.40 1.34 1.32 1.33 1.33 1.37 1.37 1.37 1.39 1.40 1.40 1.35 1.31 1.30 1.31 1.28 1.27 1.23 1.21 1.16 1.11 1.04 1.01 1.00 0.98 1.02 1.05 1.05 1.02 1.01 0.94 0.97 1.16
0.26 0.25 0.29 0.33 0.32 0.33 0.34 0.38 0.39 0.33 0.28 0.31 0.28 0.29 0.32 0.33 0.32 0.27 0.21 0.24 0.26 0.23 0.25 0.28 0.24 0.25 0.23 0.16 0.25 0.28 0.29 0.32 0.38 0.44 0.53 0.61 0.69 0.73 0.86 1.00 1.08 1.15 1.18 1.25 1.39 1.36 1.45 1.51 1.54 1.50 1.48 1.48 1.46 1.43 1.40 1.36 1.34 1.36 1.37 1.37 1.34 1.38 1.36 1.37 1.35 1.34 1.33 1.31 1.30 1.29 1.28 1.25 1.22 1.18 1.11 1.05 1.04 1.02 1.03 1.05 1.06 1.04 1.05 1.02 0.98 1.00
0.28 0.18 0.26 0.31 0.35 0.37 0.41 0.36 0.37 0.40 0.34 0.26 0.30 0.39 0.27 0.23 0.20 0.27 0.25 0.20 0.20 0.20 0.22 0.26 0.27 0.27 0.29 0.26 0.27 0.26 0.26 0.27 0.31 0.39 0.42 0.49 0.59 0.67 0.73 0.80 0.93 1.12 1.22 1.24 1.31 1.32 1.45 1.58 1.64 1.56 1.49 1.49 1.50 1.51 1.49 1.46 1.42 1.37 1.36 1.39 1.39 1.35 1.34 1.33 1.35 1.37 1.37 1.34 1.31 1.31 1.27 1.25 1.24 1.24 1.20 1.13 1.10 1.10 1.04 1.02 1.06 1.04 1.02 1.08 1.06 1.05
0.26 0.18 0.22 0.30 0.31 0.33 0.35 0.37 0.30 0.33 0.38 0.34 0.32 0.36 0.40 0.32 0.26 0.22 0.25 0.24 0.26 0.22 0.21 0.20 0.24 0.21 0.29 0.35 0.35 0.29 0.27 0.28 0.27 0.31 0.37 0.40 0.49 0.57 0.61 0.68 0.80 0.96 1.10 1.19 1.25 1.29 1.37 1.45 1.57 1.60 1.53 1.52 1.53 1.52 1.53 1.52 1.50 1.40 1.35 1.33 1.37 1.42 1.44 1.41 1.36 1.37 1.32 1.32 1.30 1.28 1.29 1.27 1.28 1.25 1.23 1.18 1.10 1.12 1.08 1.05 1.07 1.09 1.04 1.04 1.13 1.13
0.20 0.25 0.15 0.22 0.24 0.25 0.23 0.30 0.31 0.32 0.31 0.29 0.28 0.32 0.38 0.36 0.34 0.30 0.28 0.25 0.24 0.22 0.22 0.24 0.22 0.23 0.26 0.31 0.31 0.32 0.33 0.32 0.30 0.28 0.33 0.38 0.44 0.50 0.54 0.58 0.71 0.85 0.97 1.17 1.23 1.27 1.26 1.34 1.44 1.55 1.65 1.62 1.60 1.58 1.56 1.55 1.51 1.47 1.43 1.34 1.32 1.32 1.35 1.33 1.32 1.31 1.30 1.32 1.28 1.27 1.23 1.24 1.25 1.24 1.25 1.20 1.16 1.14 1.16 1.13 1.11 1.13 1.11 1.10 1.11 1.18
0.19 0.19 0.15 0.17 0.22 0.22 0.22 0.29 0.33 0.34 0.35 0.33 0.30 0.31 0.35 0.35 0.32 0.26 0.23 0.30 0.26 0.24 0.23 0.26 0.24 0.30 0.34 0.36 0.31 0.27 0.30 0.32 0.32 0.31 0.30 0.34 0.36 0.44 0.54 0.59 0.67 0.78 0.91 1.03 1.16 1.18 1.23 1.23 1.24 1.36 1.59 1.65 1.65 1.61 1.56 1.55 1.54 1.52 1.47 1.39 1.31 1.29 1.29 1.30 1.29 1.28 1.29 1.30 1.30 1.26 1.25 1.25 1.27 1.29 1.28 1.23 1.21 1.16 1.18 1.19 1.16 1.16 1.17 1.12 1.15 1.16
0.31 0.29 0.22 0.18 0.21 0.26 0.28 0.30 0.33 0.36 0.37 0.37 0.37 0.31 0.35 0.37 0.39 0.33 0.23 0.26 0.28 0.28 0.30 0.31 0.29 0.29 0.42 0.41 0.41 0.37 0.30 0.32 0.34 0.29 0.28 0.28 0.30 0.32 0.46 0.61 0.68 0.75 0.86 1.00 1.14 1.17 1.21 1.29 1.30 1.30 1.49 1.64 1.61 1.61 1.56 1.54 1.52 1.50 1.47 1.45 1.39 1.27 1.23 1.24 1.25 1.28 1.29 1.28 1.28 1.29 1.30 1.30 1.32 1.32 1.30 1.25 1.23 1.18 1.18 1.21 1.21 1.20 1.16 1.14 1.16 1.20
0.38 0.26 0.21 0.20 0.26 0.31 0.37 0.41 0.41 0.42 0.37 0.29 0.32 0.38 0.36 0.27 0.36 0.39 0.35 0.32 0.29 0.29 0.29 0.29 0.25 0.29 0.42 0.45 0.46 0.43 0.36 0.32 0.36 0.36 0.33 0.34 0.34 0.33 0.37 0.51 0.66 0.77 0.90 1.00 1.09 1.17 1.15 1.12 1.26 1.34 1.48 1.67 1.63 1.62 1.58 1.54 1.52 1.52 1.50 1.48 1.43 1.32 1.26 1.25 1.26 1.29 1.28 1.25 1.25 1.28 1.32 1.32 1.34 1.33 1.29 1.26 1.25 1.21 1.19 1.23 1.23 1.23 1.17 1.16 1.17 1.22
0.23 0.26 0.22 0.19 0.19 0.18 0.23 0.30 0.31 0.35 0.34 0.32 0.31 0.35 0.36 0.36 0.29 0.36 0.42 0.42 0.34 0.34 0.34 0.29 0.24 0.27 0.41 0.51 0.47 0.42 0.37 0.33 0.30 0.31 0.32 0.34 0.46 0.47 0.44 0.50 0.63 0.77 0.89 1.01 1.09 1.10 1.06 1.13 1.24 1.29 1.46 1.60 1.60 1.60 1.62 1.58 1.53 1.52 1.52 1.50 1.46 1.38 1.37 1.31 1.29 1.29 1.29 1.23 1.20 1.25 1.29 1.29 1.31 1.29 1.27 1.25 1.25 1.24 1.25 1.25 1.27 1.26 1.20 1.19 1.16 1.20
0.29 0.29 0.27 0.18 0.14 0.13 0.12 0.14 0.19 0.23 0.29 0.31 0.33 0.35 0.39 0.37 0.35 0.29 0.30 0.36 0.32 0.37 0.41 0.38 0.33 0.36 0.37 0.45 0.53 0.50 0.41 0.37 0.35 0.36 0.34 0.32 0.34 0.42 0.54 0.60 0.65 0.74 0.90 1.03 1.03 1.03 1.06 1.12 1.23 1.31 1.45 1.58 1.57 1.55 1.60 1.60 1.55 1.53 1.52 1.51 1.50 1.45 1.41 1.39 1.34 1.30 1.31 1.27 1.22 1.22 1.22 1.24 1.27 1.27 1.25 1.23 1.22 1.24 1.27 1.26 1.27 1.30 1.29 1.23 1.18 1.17
0.26 0.29 0.31 0.30 0.25 0.20 0.21 0.37 0.42 0.41 0.37 0.33 0.31 0.26 0.32 0.38 0.39 0.38 0.34 0.32 0.33 0.36 0.37 0.42 0.46 0.47 0.40 0.40 0.43 0.48 0.51 0.39 0.32 0.35 0.37 0.36 0.38 0.41 0.48 0.61 0.68 0.76 0.90 1.06 1.05 1.02 1.05 1.06 1.28 1.46 1.55 1.53 1.49 1.51 1.57 1.59 1.56 1.54 1.53 1.52 1.54 1.54 1.47 1.42 1.38 1.35 1.34 1.30 1.22 1.19 1.18 1.21 1.21 1.24 1.26 1.25 1.22 1.23 1.25 1.25 1.26 1.28 1.30 1.29 1.22 1.16
0.23 0.21 0.22 0.26 0.29 0.30 0.31 0.38 0.42 0.38 0.32 0.33 0.33 0.36 0.38 0.36 0.39 0.40 0.37 0.33 0.37 0.39 0.33 0.43 0.48 0.47 0.51 0.49 0.55 0.56 0.53 0.47 0.35 0.35 0.39 0.42 0.42 0.43 0.48 0.60 0.72 0.90 1.00 1.16 1.26 1.21 1.19 1.26 1.36 1.50 1.48 1.44 1.46 1.47 1.53 1.60 1.58 1.55 1.52 1.51 1.55 1.57 1.53 1.47 1.40 1.38 1.37 1.35 1.27 1.20 1.16 1.18 1.20 1.20 1.24 1.26 1.23 1.23 1.23 1.23 1.22 1.25 1.31 1.35 1.27 1.19
0.25 0.21 0.22 0.22 0.21 0.24 0.28 0.30 0.37 0.37 0.34 0.34 0.37 0.39 0.35 0.38 0.42 0.35 0.39 0.45 0.45 0.39 0.36 0.43 0.48 0.50 0.52 0.58 0.59 0.62 0.68 0.64 0.64 0.62 0.62 0.61 0.57 0.63 0.60 0.55 0.58 0.68 0.82 0.96 1.11 1.27 1.33 1.28 1.35 1.50 1.45 1.41 1.40 1.41 1.46 1.53 1.59 1.61 1.60 1.59 1.58 1.58 1.55 1.52 1.44 1.39 1.39 1.39 1.32 1.23 1.20 1.20 1.23 1.21 1.22 1.24 1.24 1.21 1.20 1.21 1.22 1.24 1.26 1.30 1.29 1.25
0.28 0.23 0.23 0.23 0.22 0.23 0.23 0.25 0.29 0.31 0.33 0.31 0.31 0.33 0.37 0.37 0.39 0.41 0.41 0.45 0.46 0.44 0.47 0.50 0.51 0.51 0.55 0.58 0.65 0.88 0.77 0.78 0.81 0.68 0.65 0.67 0.77 0.83 0.73 0.58 0.53 0.54 0.58 0.70 0.86 0.98 1.02 1.15 1.27 1.34 1.33 1.32 1.30 1.33 1.36 1.45 1.52 1.54 1.56 1.58 1.60 1.60 1.63 1.60 1.52 1.45 1.42 1.39 1.36 1.34 1.31 1.25 1.24 1.23 1.21 1.21 1.21 1.19 1.19 1.18 1.18 1.20 1.22 1.24 1.26 1.27
0.26 0.22 0.25 0.23 0.21 0.20 0.21 0.22 0.25 0.27 0.28 0.27 0.28 0.31 0.35 0.38 0.39 0.41 0.44 0.44 0.47 0.46 0.49 0.49 0.52 0.51 0.61 0.74 0.77 0.90 0.84 0.82 0.78 0.70 0.70 0.82 0.87 0.90 0.86 0.73 0.76 0.88 0.87 0.90 0.83 1.04 0.99 1.05 1.19 1.29 1.32 1.29 1.28 1.30 1.32 1.38 1.45 1.51 1.54 1.58 1.59 1.59 1.62 1.61 1.55 1.51 1.45 1.43 1.46 1.46 1.43 1.34 1.27 1.25 1.22 1.21 1.20 1.20 1.18 1.18 1.19 1.16 1.19 1.20 1.24 1.23
0.30 0.24 0.26 0.23 0.18 0.17 0.20 0.21 0.21 0.22 0.24 0.27 0.28 0.30 0.31 0.34 0.34 0.36 0.39 0.44 0.43 0.42 0.46 0.48 0.46 0.49 0.60 0.71 0.74 0.83 0.82 0.77 0.73 0.77 0.77 0.80 0.96 1.00 0.90 0.86 0.90 0.97 1.03 1.06 1.06 1.08 1.15 1.16 1.12 1.22 1.26 1.22 1.22 1.26 1.34 1.37 1.43 1.48 1.50 1.55 1.56 1.58 1.62 1.62 1.59 1.53 1.51 1.52 1.56 1.53 1.48 1.42 1.35 1.29 1.23 1.21 1.21 1.21 1.17 1.17 1.16 1.16 1.16 1.18 1.21 1.24
0.32 0.28 0.24 0.22 0.19 0.18 0.21 0.22 0.21 0.19 0.19 0.19 0.23 0.29 0.32 0.33 0.37 0.40 0.41 0.44 0.45 0.47 0.44 0.43 0.45 0.53 0.60 0.67 0.74 0.80 0.79 0.80 0.81 0.81 0.86 0.86 0.87 0.89 0.89 0.84 0.88 0.95 0.98 1.02 1.02 1.11 1.12 1.12 1.09 1.27 1.25 1.32 1.26 1.23 1.27 1.36 1.41 1.43 1.46 1.50 1.56 1.60 1.60 1.61 1.60 1.59 1.59 1.60 1.60 1.58 1.54 1.49 1.42 1.36 1.32 1.26 1.25 1.24 1.21 1.16 1.15 1.14 1.15 1.15 1.20 1.25
0.33 0.31 0.26 0.26 0.20 0.19 0.22 0.21 0.22 0.21 0.16 0.14 0.21 0.29 0.35 0.33 0.33 0.34 0.35 0.35 0.41 0.47 0.47 0.49 0.50 0.56 0.59 0.67 0.80 0.78 0.81 0.79 0.77 0.78 0.79 0.74 0.71 0.76 0.81 0.95 0.92 0.90 0.94 0.95 0.90 1.09 1.20 1.23 1.19 1.30 1.24 1.36 1.35 1.31 1.24 1.30 1.36 1.43 1.48 1.52 1.57 1.59 1.58 1.60 1.62 1.62 1.60 1.62 1.63 1.62 1.61 1.57 1.50 1.43 1.38 1.35 1.33 1.29 1.23 1.17 1.13 1.14 1.17 1.21 1.23 1.21
0.30 0.30 0.26 0.29 0.23 0.20 0.22 0.23 0.20 0.15 0.16 0.24 0.24 0.26 0.32 0.35 0.36 0.34 0.35 0.38 0.39 0.42 0.46 0.47 0.49 0.59 0.80 0.85 0.84 0.80 0.80 0.78 0.75 0.68 0.68 0.74 0.71 0.71 0.77 0.79 0.89 1.01 1.17 1.13 1.17 1.20 1.29 1.29 1.23 1.17 1.23 1.34 1.22 1.33 1.35 1.29 1.31 1.39 1.48 1.53 1.56 1.57 1.56 1.59 1.61 1.63 1.63 1.62 1.65 1.68 1.66 1.64 1.58 1.51 1.48 1.42 1.36 1.31 1.25 1.18 1.16 1.18 1.21 1.22 1.20 1.17
0.30 0.28 0.27 0.27 0.27 0.26 0.22 0.20 0.15 0.15 0.22 0.25 0.26 0.26 0.26 0.29 0.35 0.36 0.32 0.35 0.39 0.41 0.46 0.52 0.57 0.61 0.75 0.76 0.79 0.85 0.82 0.80 0.76 0.71 0.66 0.71 0.90 0.82 0.78 0.84 1.02 1.09 1.08 1.10 1.04 1.06 1.14 1.17 1.23 1.22 1.26 1.24 1.29 1.26 1.34 1.30 1.26 1.29 1.34 1.41 1.46 1.52 1.56 1.57 1.60 1.63 1.64 1.62 1.64 1.66 1.67 1.66 1.63 1.60 1.56 1.49 1.40 1.31 1.26 1.21 1.18 1.16 1.23 1.25 1.26 1.25
0.35 0.33 0.30 0.24 0.27 0.20 0.20 0.19 0.18 0.22 0.21 0.19 0.20 0.26 0.39 0.39 0.40 0.40 0.33 0.33 0.37 0.51 0.59 0.66 0.67 0.69 0.76 0.76 0.72 0.73 0.79 0.77 0.68 0.64 0.68 0.83 0.76 0.79 0.80 0.82 0.86 0.90 0.95 1.01 1.04 1.10 1.18 1.19 1.18 1.22 1.26 1.29 1.21 1.24 1.24 1.28 1.27 1.23 1.27 1.32 1.39 1.47 1.50 1.54 1.55 1.59 1.63 1.62 1.64 1.66 1.68 1.68 1.65 1.64 1.61 1.55 1.44 1.33 1.26 1.23 1.23 1.24 1.27 1.24 1.24 1.24
0.39 0.31 0.31 0.26 0.23 0.24 0.20 0.18 0.19 0.18 0.14 0.15 0.37 0.50 0.56 0.59 0.60 0.59 0.50 0.42 0.64 0.65 0.70 0.70 0.68 0.71 0.71 0.71 0.71 0.69 0.71 0.59 0.54 0.58 0.87 0.80 0.79 0.75 0.78 0.81 0.87 0.92 0.97 1.00 1.05 1.10 1.16 1.19 1.20 1.25 1.27 1.22 1.14 1.13 1.19 1.25 1.24 1.22 1.22 1.23 1.29 1.38 1.44 1.47 1.49 1.55 1.60 1.61 1.63 1.67 1.70 1.70 1.68 1.64 1.62 1.58 1.49 1.39 1.32 1.32 1.32 1.29 1.28 1.20 1.18 1.20
0.41 0.39 0.36 0.30 0.23 0.23 0.19 0.18 0.18 0.16 0.18 0.42 0.47 0.49 0.58 0.63 0.68 0.72 0.50 0.40 0.73 0.76 0.74 0.68 0.65 0.67 0.66 0.65 0.67 0.71 0.65 0.53 0.52 0.61 0.84 0.86 0.83 0.82 0.78 0.79 0.82 0.92 0.98 1.02 1.05 1.08 1.11 1.15 1.18 1.18 1.21 1.16 1.03 1.01 1.10 1.23 1.24 1.22 1.19 1.18 1.22 1.33 1.37 1.40 1.44 1.50 1.54 1.57 1.63 1.70 1.73 1.73 1.72 1.69 1.65 1.58 1.52 1.47 1.40 1.36 1.33 1.36 1.35 1.28 1.24 1.21
0.38 0.37 0.34 0.27 0.23 0.22 0.22 0.19 0.17 0.20 0.20 0.42 0.47 0.50 0.56 0.59 0.66 0.63 0.35 0.37 0.63 0.80 0.78 0.71 0.65 0.63 0.65 0.66 0.71 0.72 0.65 0.54 0.59 0.76 0.86 0.90 0.90 0.91 0.89 0.84 0.85 0.90 0.99 1.06 1.11 1.16 1.15 1.12 1.10 1.05 1.05 1.01 0.96 0.96 1.03 1.19 1.24 1.23 1.22 1.18 1.21 1.26 1.31 1.36 1.42 1.49 1.57 1.63 1.68 1.73 1.75 1.74 1.72 1.72 1.68 1.63 1.59 1.56 1.48 1.43 1.42 1.42 1.39 1.34 1.30 1.26
0.34 0.35 0.32 0.24 0.23 0.23 0.22 0.21 0.21 0.22 0.28 0.41 0.42 0.52 0.59 0.61 0.53 0.40 0.34 0.49 0.66 0.81 0.84 0.77 0.66 0.64 0.66 0.67 0.72 0.65 0.71 0.71 0.70 0.77 0.85 0.92 0.90 0.91 0.97 1.00 0.99 1.01 1.01 1.06 1.09 1.15 1.07 1.05 1.05 1.04 1.03 1.05 1.02 0.98 1.05 1.19 1.23 1.23 1.24 1.23 1.19 1.19 1.23 1.34 1.45 1.54 1.61 1.64 1.66 1.69 1.70 1.72 1.72 1.71 1.72 1.72 1.66 1.62 1.53 1.44 1.38 1.39 1.39 1.36 1.35 1.32
0.34 0.34 0.33 0.30 0.25 0.22 0.21 0.19 0.18 0.22 0.37 0.45 0.51 0.49 0.58 0.46 0.34 0.33 0.59 0.76 0.77 0.78 0.82 0.81 0.75 0.69 0.69 0.70 0.72 0.72 0.72 0.76 0.77 0.81 0.83 0.85 0.86 0.89 0.95 1.00 1.03 1.07 1.12 1.13 1.15 1.07 1.06 1.07 1.09 1.11 1.12 1.06 1.00 0.99 1.11 1.22 1.22 1.25 1.26 1.24 1.18 1.14 1.22 1.35 1.45 1.52 1.58 1.59 1.61 1.65 1.69 1.68 1.72 1.74 1.74 1.75 1.71 1.61 1.48 1.43 1.41 1.40 1.39 1.39 1.37 1.31
0.33 0.29 0.26 0.24 0.25 0.26 0.25 0.22 0.20 0.18 0.37 0.49 0.48 0.44 0.56 0.42 0.50 0.61 0.71 0.75 0.77 0.78 0.78 0.79 0.78 0.78 0.76 0.72 0.74 0.74 0.74 0.75 0.76 0.80 0.86 0.88 0.86 0.86 0.90 0.96 1.00 1.02 1.03 1.04 1.07 1.14 1.13 1.10 1.08 1.11 1.12 1.09 1.04 1.05 1.13 1.21 1.20 1.24 1.29 1.19 1.16 1.21 1.30 1.35 1.41 1.49 1.55 1.57 1.58 1.62 1.66 1.68 1.68 1.68 1.70 1.70 1.68 1.56 1.40 1.39 1.38 1.39 1.40 1.36 1.34 1.31
0.38 0.28 0.27 0.28 0.29 0.23 0.23 0.20 0.19 0.32 0.49 0.54 0.50 0.40 0.53 0.61 0.67 0.72 0.72 0.71 0.78 0.75 0.77 0.80 0.79 0.78 0.78 0.74 0.73 0.74 0.74 0.74 0.76 0.80 0.86 0.91 0.92 0.94 0.97 1.02 1.05 1.06 1.11 1.15 1.18 1.19 1.20 1.13 1.18 1.21 1.18 1.10 1.14 1.18 1.20 1.21 1.22 1.24 1.23 1.20 1.28 1.34 1.39 1.37 1.40 1.45 1.53 1.55 1.56 1.61 1.65 1.66 1.66 1.65 1.66 1.65 1.59 1.46 1.35 1.36 1.37 1.39 1.38 1.35 1.31 1.28
0.47 0.38 0.41 0.31 0.40 0.30 0.26 0.32 0.46 0.49 0.56 0.58 0.55 0.55 0.59 0.67 0.70 0.71 0.73 0.74 0.77 0.78 0.79 0.79 0.79 0.79 0.80 0.78 0.75 0.76 0.75 0.75 0.78 0.84 0.87 0.91 0.95 0.97 0.99 1.05 1.08 1.10 1.14 1.18 1.20 1.24 1.26 1.27 1.27 1.27 1.17 1.15 1.19 1.19 1.20 1.24 1.26 1.26 1.23 1.32 1.36 1.39 1.39 1.39 1.41 1.41 1.47 1.51 1.55 1.60 1.64 1.65 1.64 1.62 1.60 1.55 1.44 1.35 1.34 1.35 1.36 1.33 1.36 1.36 1.31 1.27
0.53 0.52 0.52 0.43 0.40 0.48 0.44 0.44 0.49 0.50 0.50 0.54 0.58 0.60 0.60 0.64 0.68 0.71 0.72 0.71 0.77 0.83 0.83 0.78 0.80 0.81 0.82 0.82 0.76 0.76 0.76 0.79 0.82 0.87 0.90 0.96 1.00 1.04 1.07 1.09 1.14 1.18 1.21 1.27 1.28 1.30 1.30 1.37 1.42 1.44 1.38 1.28 1.29 1.24 1.24 1.28 1.30 1.22 1.27 1.38 1.39 1.42 1.46 1.47 1.45 1.43 1.48 1.53 1.57 1.61 1.62 1.58 1.60 1.57 1.47 1.40 1.38 1.36 1.36 1.31 1.30 1.28 1.30 1.29 1.26 1.24
0.51 0.54 0.49 0.40 0.45 0.39 0.31 0.50 0.50 0.50 0.52 0.53 0.55 0.57 0.64 0.67 0.67 0.71 0.70 0.73 0.77 0.82 0.84 0.84 0.82 0.82 0.84 0.84 0.80 0.77 0.79 0.82 0.85 0.90 0.94 0.99 1.05 1.10 1.11 1.10 1.14 1.19 1.21 1.23 1.28 1.33 1.37 1.45 1.49 1.53 1.54 1.44 1.40 1.36 1.31 1.34 1.35 1.35 1.37 1.40 1.41 1.43 1.52 1.54 1.50 1.50 1.54 1.53 1.56 1.59 1.59 1.55 1.52 1.43 1.35 1.37 1.42 1.43 1.39 1.36 1.34 1.30 1.28 1.26 1.25 1.25
0.44 0.58 0.47 0.45 0.42 0.37 0.35 0.44 0.48 0.53 0.55 0.56 0.57 0.57 0.62 0.66 0.67 0.68 0.70 0.73 0.78 0.84 0.88 0.90 0.88 0.82 0.86 0.83 0.83 0.81 0.82 0.86 0.88 0.92 0.96 1.04 1.10 1.13 1.15 1.16 1.17 1.20 1.29 1.33 1.36 1.38 1.43 1.47 1.52 1.59 1.65 1.59 1.62 1.66 1.45 1.47 1.49 1.53 1.47 1.43 1.40 1.49 1.56 1.58 1.57 1.54 1.55 1.54 1.55 1.57 1.60 1.54 1.45 1.35 1.30 1.34 1.40 1.43 1.46 1.48 1.47 1.42 1.37 1.38 1.39 1.40
0.53 0.57 0.41 0.47 0.42 0.46 0.50 0.52 0.53 0.52 0.53 0.60 0.63 0.64 0.64 0.64 0.64 0.64 0.69 0.72 0.76 0.80 0.85 0.88 0.91 0.88 0.87 0.86 0.88 0.86 0.84 0.87 0.92 0.98 1.02 1.05 1.09 1.15 1.18 1.19 1.21 1.25 1.31 1.33 1.36 1.41 1.41 1.50 1.51 1.59 1.60 1.58 1.63 1.61 1.60 1.55 1.55 1.61 1.58 1.53 1.48 1.54 1.61 1.61 1.62 1.60 1.57 1.55 1.59 1.59 1.60 1.52 1.38 1.33 1.34 1.39 1.46 1.60 1.70 1.60 1.54 1.53 1.58 1.67 1.68 1.62
0.52 0.44 0.52 0.48 0.41 0.41 0.42 0.47 0.52 0.42 0.42 0.52 0.57 0.61 0.64 0.67 0.66 0.66 0.68 0.70 0.74 0.78 0.84 0.86 0.89 0.90 0.90 0.91 0.90 0.88 0.86 0.88 0.90 0.95 1.07 1.15 1.18 1.17 1.16 1.18 1.21 1.26 1.34 1.39 1.43 1.44 1.48 1.52 1.54 1.53 1.52 1.56 1.59 1.55 1.55 1.59 1.69 1.71 1.68 1.67 1.58 1.68 1.65 1.67 1.63 1.55 1.55 1.57 1.59 1.58 1.54 1.48 1.39 1.34 1.41 1.48 1.50 1.51 1.55 1.63 1.63 1.62 1.69 1.69 1.71 1.72
0.50 0.50 0.51 0.45 0.43 0.41 0.51 0.56 0.58 0.57 0.55 0.56 0.59 0.64 0.66 0.69 0.69 0.67 0.68 0.70 0.74 0.80 0.85 0.87 0.84 0.84 0.88 0.90 0.92 0.89 0.88 0.89 0.90 0.95 1.05 1.13 1.20 1.24 1.24 1.21 1.21 1.25 1.32 1.41 1.43 1.44 1.47 1.51 1.52 1.49 1.49 1.54 1.56 1.55 1.63 1.63 1.73 1.80 1.85 1.84 1.72 1.77 1.75 1.71 1.58 1.54 1.58 1.60 1.58 1.60 1.55 1.51 1.45 1.40 1.45 1.54 1.54 1.53 1.50 1.53 1.61 1.67 1.72 1.74 1.78 1.77
Wind_Speed
24 24 25 25 23 23 24 24 24 23 21 19 20 21 22 22 21 21 20 17 17 18 20 22 21 18 19 20 20 19 19 20 18 17 17 19 19 17 16 17 17 17 18 19 19 20 20 20 20 20 21 21 21 22 22 22 22 21 21 21 21 21 21 20 20 19 19 18 17 16 15 15 15 14 13 12 11 11 11 11 11 10 10 9 9 8
25 26 27 26 25 24 24 25 25 25 24 21 20 20 21 22 22 21 20 19 19 18 19 21 21 20 20 20 21 21 20 20 20 18 19 21 20 17 17 17 17 17 18 19 19 20 21 20 20 20 21 22 23 23 23 23 23 22 22 22 22 22 21 20 20 20 19 18 18 17 16 15 15 14 13 13 12 11 11 11 11 11 10 9 9 8
26 28 28 26 26 25 24 24 25 26 25 23 21 21 20 20 21 21 21 20 20 18 18 20 21 22 22 21 21 22 21 21 22 20 19 21 20 18 17 17 17 18 18 19 20 20 21 21 21 21 21 22 23 23 24 23 24 23 22 22 22 22 22 21 21 20 20 19 18 17 16 16 15 15 14 13 13 12 12 12 11 11 10 10 9 9
26 26 27 27 26 27 26 24 25 25 25 24 22 22 22 20 20 20 20 21 21 19 17 19 20 20 21 21 22 23 23 22 22 22 20 19 19 18 18 18 18 19 19 19 20 20 21 22 22 22 21 22 23 24 24 24 24 24 23 23 23 23 23 22 22 21 21 20 19 18 17 16 15 15 15 14 14 13 12 12 12 11 11 10 9 9
26 24 25 29 28 27 28 26 25 25 24 25 25 24 23 22 22 21 20 21 22 22 20 19 19 20 21 21 21 22 23 22 22 22 21 20 20 19 19 19 19 19 19 20 21 21 21 22 22 22 22 23 23 24 25 25 24 24 24 24 24 24 23 23 23 23 22 21 20 19 18 17 16 15 16 15 14 14 13 12 12 12 11 10 10 9
27 25 24 28 30 29 28 27 26 25 23 24 26 26 25 24 23 23 22 21 20 22 23 22 21 19 21 22 21 21 22 23 22 22 23 22 22 21 20 20 20 19 19 20 21 21 21 22 23 23 23 23 24 25 25 25 25 24 24 24 24 24 24 24 24 24 23 22 21 20 19 18 17 16 16 16 15 14 14 13 12 12 12 11 10 9
27 27 24 25 29 30 29 28 27 27 24 23 23 25 27 27 26 24 24 23 21 20 21 23 23 20 20 22 24 23 22 23 23 23 23 24 24 23 21 20 20 20 20 20 20 21 21 22 23 23 24 24 24 25 26 26 25 25 25 25 25 25 25 25 25 25 24 23 22 22 21 20 19 18 17 17 16 15 14 13 13 12 12 12 11 10
27 29 28 26 28 29 29 28 28 27 26 24 21 21 24 26 28 27 24 24 23 22 22 23 23 22 21 21 22 24 24 24 24 24 24 24 24 23 21 21 22 21 21 20 20 21 22 22 23 24 24 24 25 25 26 26 26 26 25 25 25 25 25 25 26 25 25 24 23 22 21 20 20 19 18 17 16 15 14 14 13 13 12 12 11 11
27 30 31 28 27 28 28 28 28 28 27 25 23 21 21 23 26 27 26 24 23 24 24 24 23 22 22 21 21 23 26 26 26 26 25 24 24 24 23 23 23 22 22 21 21 22 22 22 23 24 24 24 25 25 26 26 26 26 26 25 26 26 26 26 26 26 25 24 24 23 22 21 21 20 19 18 17 16 15 14 14 13 13 12 12 11
25 28 31 31 28 27 28 28 28 30 28 27 25 22 20 21 22 24 26 25 24 26 27 26 25 23 21 21 21 21 23 26 26 25 25 25 25 25 24 23 23 23 22 22 22 22 22 22 22 23 24 25 25 25 26 27 27 27 26 26 26 26 26 27 27 27 26 25 24 24 23 23 22 21 19 18 18 17 16 15 15 14 13 13 12 12
27 26 28 31 30 28 28 28 28 29 28 27 27 25 22 22 22 22 24 25 25 27 29 29 28 26 22 21 22 23 23 23 24 25 24 25 26 25 24 23 23 23 22 22 22 22 22 23 23 23 23 25 25 25 26 27 27 27 27 27 27 26 26 27 27 27 27 26 25 25 24 24 23 22 21 20 19 18 18 17 16 15 14 14 13 12
31 29 27 29 31 29 28 29 28 28 28 27 26 26 24 23 23 23 24 25 26 26 27 29 30 29 26 22 21 22 23 23 23 24 25 25 26 25 25 24 23 22 23 23 22 22 22 23 23 23 23 24 25 26 26 27 27 28 27 28 27 27 27 27 27 27 27 27 26 26 25 25 24 23 22 22 20 19 19 18 17 16 15 14 13 13
31 33 30 28 30 31 29 29 29 28 28 28 27 26 25 23 23 24 24 25 26 26 25 27 29 30 28 26 23 22 22 23 23 23 24 25 26 27 27 26 24 23 24 23 23 22 23 23 23 23 23 23 24 26 27 27 28 28 28 28 29 28 27 27 28 28 27 27 27 27 26 25 25 24 23 23 22 21 20 19 18 17 16 15 14 14
27 31 34 32 30 32 32 29 29 28 28 29 29 28 27 24 23 24 24 24 25 26 26 27 28 29 28 27 28 26 22 21 22 23 24 25 26 27 27 27 26 25 25 24 24 24 24 24 23 23 23 23 23 25 26 27 28 28 28 29 29 29 29 28 28 28 28 27 27 27 27 26 25 25 24 24 23 22 21 20 19 18 17 16 16 15
25 26 31 35 31 31 34 33 30 28 28 29 30 29 29 27 25 24 23 24 24 23 26 28 28 28 26 25 27 29 26 24 22 22 24 25 25 25 26 27 26 26 25 25 25 24 24 25 24 24 23 22 22 23 25 26 27 28 28 29 30 30 30 29 28 28 28 28 27 27 27 27 26 25 25 24 24 23 22 21 21 20 18 17 16 16
25 24 24 30 33 32 34 34 33 31 28 28 29 30 31 30 27 24 23 24 24 23 24 26 27 27 25 23 24 27 28 29 26 22 22 24 26 25 26 27 27 26 26 25 25 24 25 25 25 24 23 23 22 22 23 24 26 27 28 29 30 30 30 30 29 28 28 28 28 28 28 27 26 26 26 25 25 24 23 22 22 21 20 19 17 16
24 24 20 23 31 33 33 34 34 34 30 27 29 32 32 30 29 27 25 24 24 23 22 23 25 26 25 25 25 26 27 29 30 27 24 24 26 26 26 26 26 26 26 26 25 25 25 26 25 25 24 23 23 23 23 24 25 26 28 29 30 30 30 30 30 29 28 28 28 28 28 27 27 27 27 26 26 25 24 23 23 22 21 20 19 18
21 23 22 22 27 30 31 33 34 36 34 29 27 29 30 30 30 29 26 25 25 24 22 22 24 24 25 24 25 26 27 27 29 29 28 26 26 26 26 26 26 25 26 27 27 26 25 25 26 26 25 25 24 24 23 23 24 25 26 28 30 30 30 31 30 29 29 29 29 28 28 28 27 27 27 27 26 26 25 24 24 23 22 21 21 19
21 22 23 24 26 27 28 31 32 35 38 35 28 24 27 30 31 31 28 26 26 25 22 23 24 23 23 23 24 27 28 28 28 28 30 29 28 28 27 27 27 26 26 27 27 26 25 24 25 26 26 26 25 25 24 24 24 24 25 27 29 30 31 31 30 30 30 29 29 29 29 28 28 28 28 27 27 26 26 25 24 24 23 22 21 21
23 24 24 24 25 26 26 28 30 31 34 37 33 27 27 29 29 31 31 28 26 24 22 22 24 24 23 23 23 25 26 28 28 27 28 30 30 30 29 28 28 28 27 27 27 27 25 24 25 26 26 26 26 25 25 24 24 24 25 26 28 29 30 31 31 30 30 30 29 29 29 29 28 28 28 28 27 26 26 26 25 25 24 23 22 22
24 25 26 26 26 27 28 28 30 30 30 33 35 33 29 27 28 29 31 31 29 26 22 21 21 22 23 24 25 24 22 24 27 27 26 28 29 30 30 30 29 29 28 28 28 27 27 25 25 26 26 27 27 26 25 25 25 24 24 25 27 28 30 31 31 31 31 30 30 30 30 29 29 28 28 28 28 27 26 26 26 25 24 24 23 22
24 25 27 27 26 27 29 28 30 31 31 30 33 35 33 29 28 28 29 32 32 29 26 22 20 18 17 20 24 25 22 21 24 27 26 27 28 28 28 29 29 29 29 29 29 28 28 27 26 26 26 27 27 26 26 25 25 25 24 25 26 27 29 30 31 31 31 31 31 30 30 30 29 29 29 28 28 28 27 26 26 26 25 24 24 23
23 24 26 28 28 27 27 27 28 30 32 32 32 33 34 32 30 28 28 29 31 31 29 26 23 19 14 15 18 21 24 21 21 24 25 26 28 29 28 28 29 29 29 29 29 29 28 27 27 27 27 27 28 27 27 26 25 25 25 25 25 26 28 29 30 30 31 31 31 31 31 30 30 29 29 29 28 28 27 26 26 26 26 25 24 24
23 25 25 26 28 28 28 28 29 30 31 33 33 32 34 35 34 30 27 27 28 29 29 28 26 22 17 16 16 18 21 21 20 21 22 23 24 27 29 28 28 28 29 30 29 28 27 26 26 26 27 27 28 28 27 27 26 26 26 25 25 26 27 28 29 29 30 31 32 32 32 31 30 30 30 29 28 28 27 26 26 26 26 26 25 24
23 25 26 25 25 27 29 29 30 31 31 32 33 34 35 36 37 35 30 28 28 28 28 27 28 27 21 16 14 16 18 19 19 20 22 22 21 23 26 27 28 28 28 29 29 28 28 28 27 26 27 27 28 28 28 28 27 26 26 25 25 25 26 27 28 28 29 30 31 32 32 32 31 30 30 30 29 28 28 27 26 26 26 26 26 25
25 25 26 26 26 26 26 26 26 27 27 29 32 35 38 38 37 36 33 31 30 29 28 26 25 28 27 22 18 18 18 18 17 17 20 21 21 22 22 24 26 28 28 28 29 28 28 28 28 27 27 27 28 29 29 28 28 27 27 26 26 25 26 26 27 28 28 29 31 31 32 32 31 31 31 30 29 29 28 27 26 26 26 26 27 26
27 28 28 29 30 28 25 23 24 24 24 27 30 33 36 38 37 36 34 34 32 29 30 30 24 22 26 26 24 21 20 21 19 17 18 20 21 23 22 20 22 25 26 27 28 28 27 27 28 29 27 27 29 29 29 29 29 28 28 27 27 26 26 26 26 27 28 28 29 30 31 31 31 31 30 30 30 29 29 28 27 27 26 26 26 26
28 30 31 32 33 33 31 28 27 27 27 28 29 30 32 34 37 38 36 35 33 30 31 32 28 24 23 23 23 21 20 20 19 17 17 18 19 21 21 21 21 22 23 24 25 27 28 28 28 28 28 28 29 29 29 30 30 29 28 28 28 27 26 26 26 27 27 28 28 29 30 31 31 31 30 30 30 29 29 29 28 27 26 26 26 26
28 30 31 32 33 34 34 33 31 30 30 31 31 32 33 32 33 37 38 37 34 33 33 32 31 30 26 21 18 16 17 17 15 16 17 17 17 18 18 21 23 22 23 25 25 26 27 27 27 28 28 28 29 29 30 30 30 30 29 29 28 28 27 26 26 27 27 27 27 28 29 30 30 30 31 30 30 30 29 29 29 28 27 26 26 26
27 29 30 31 32 32 33 34 33 32 32 33 34 35 35 34 33 34 37 38 37 37 36 34 32 33 30 24 17 13 16 18 16 17 19 17 17 18 17 18 21 21 21 23 25 25 26 27 27 28 29 29 29 30 30 30 31 31 30 29 29 28 28 27 27 27 27 27 27 27 28 29 29 29 30 30 30 30 30 29 29 29 28 27 26 26
25 27 28 29 30 31 32 33 34 34 34 35 37 37 37 37 36 35 35 36 38 39 39 37 35 34 31 28 22 16 18 20 19 19 19 18 17 18 18 17 17 18 19 19 21 23 24 26 27 28 29 29 29 30 30 30 31 32 31 31 30 29 28 28 28 27 27 27 27 27 28 28 29 29 30 30 30 30 30 30 29 29 28 28 27 26
24 25 26 28 29 30 30 32 33 35 37 38 38 39 39 38 38 38 36 36 37 38 40 40 38 35 32 31 27 21 21 23 22 20 20 19 18 18 20 20 18 19 20 20 20 21 21 23 26 27 29 29 29 30 30 30 31 32 32 32 31 30 29 29 28 28 27 27 27 27 28 28 28 29 29 30 30 31 31 30 30 29 29 28 28 27
24 24 24 26 28 29 29 30 31 31 34 38 39 39 39 39 39 39 39 38 37 37 38 39 38 36 34 32 29 26 25 25 23 22 21 20 19 19 21 23 22 22 23 22 22 22 22 23 24 26 28 29 29 30 30 30 30 31 32 32 32 31 31 30 29 28 28 27 27 27 28 28 28 29 29 29 30 30 31 31 30 30 29 29 28 28
24 25 24 24 26 28 28 29 29 30 32 34 35 36 36 38 40 41 41 41 39 38 39 39 37 35 34 33 31 29 28 27 25 25 23 22 22 22 23 23 24 24 24 24 24 24 23 23 24 25 26 28 29 30 30 30 30 31 31 32 32 32 32 31 30 29 29 28 27 27 28 28 28 28 29 29 29 30 31 31 31 30 30 29 29 29
24 25 25 24 24 26 26 27 30 31 31 31 32 34 36 37 39 41 42 42 41 41 41 41 39 37 34 34 33 30 29 28 28 27 26 24 24 24 24 23 24 25 25 25 25 25 24 24 24 25 26 27 29 30 30 30 30 30 31 32 33 33 33 32 31 30 29 29 28 27 28 28 28 28 28 29 29 29 30 31 31 31 30 29 29 30
23 24 25 25 25 25 25 27 29 29 28 30 33 34 35 36 36 38 41 42 43 42 40 40 41 40 36 35 34 32 29 29 29 30 28 25 23 23 23 23 24 25 25 25 25 26 25 25 26 27 27 28 29 30 31 31 30 30 31 32 33 33 33 33 32 31 30 29 28 28 28 28 28 28 28 28 29 29 29 30 30 31 31 30 29 29
22 23 23 25 26 25 25 26 26 26 28 31 31 30 31 32 33 34 36 37 40 41 39 37 39 39 37 35 34 33 31 30 31 31 29 25 24 24 24 25 25 26 26 26 27 27 27 26 27 28 29 29 30 31 31 32 31 31 30 31 32 33 33 33 33 32 30 30 29 28 28 28 28 28 28 28 29 29 29 29 30 30 31 30 30 29
22 22 22 23 24 25 26 25 24 25 27 28 27 26 27 28 29 32 33 33 34 36 37 37 37 36 35 33 32 32 32 32 32 30 27 25 25 25 26 26 26 26 27 28 28 28 28 28 28 29 29 30 31 32 32 33 33 32 31 31 32 33 33 33 33 32 31 30 30 29 29 29 29 28 28 28 28 29 29 29 29 30 30 30 30 30
23 22 21 22 23 24 25 25 25 25 25 24 24 24 26 26 25 28 33 33 31 31 33 36 37 35 33 32 31 31 32 33 32 29 26 26 26 26 26 27 27 28 28 29 29 30 29 29 29 29 30 30 31 33 33 34 34 33 32 31 31 32 33 33 33 32 32 31 30 29 29 29 29 29 28 28 28 28 28 29 29 29 29 29 29 29
21 21 21 22 23 23 24 24 25 25 24 23 23 24 25 25 24 26 30 32 30 29 31 35 37 35 32 32 32 32 32 32 31 28 26 27 27 26 26 26 27 28 29 30 30 31 30 29 29 30 31 31 32 33 34 35 35 35 34 32 32 32 32 32 33 32 32 32 31 30 30 30 29 29 28 28 27 28 28 28 29 29 29 29 29 28
18 20 21 22 22 23 24 24 24 25 23 22 24 24 24 25 26 27 28 28 29 29 28 31 35 35 33 33 32 31 31 31 30 29 28 28 27 26 26 26 27 28 29 30 31 30 30 29 29 30 31 32 32 34 35 36 36 36 35 34 32 32 32 32 32 32 32 32 31 31 30 30 30 29 29 28 27 27 27 28 29 29 29 29 28 28
15 18 20 21 21 20 22 23 24 24 22 21 23 25 24 25 27 28 26 26 29 30 27 28 31 32 33 34 33 31 30 30 30 29 29 28 27 27 26 26 26 27 28 29 30 30 30 30 29 29 31 32 33 35 36 37 37 36 35 35 34 33 32 31 32 32 32 32 32 31 31 30 30 29 28 28 27 27 27 28 29 29 29 28 28 27
11 15 19 20 20 19 20 21 22 21 20 20 21 23 24 25 26 26 25 26 28 29 28 27 29 30 31 33 32 31 30 29 28 28 28 28 27 27 27 26 26 26 27 28 29 29 29 29 28 29 30 32 33 35 37 38 37 36 36 35 34 33 32 31 31 31 32 32 32 31 31 31 30 29 28 28 28 28 28 28 28 28 28 28 27 27
7 11 15 17 17 18 19 19 18 18 18 18 19 21 23 24 25 26 25 25 26 28 29 28 29 30 30 31 30 30 29 28 27 27 27 28 27 26 27 26 26 26 27 28 28 28 28 28 28 28 30 31 33 35 36 37 36 36 36 35 34 33 32 31 30 30 31 32 31 31 31 30 30 29 28 27 27 28 28 28 28 28 27 27 27 26
7 9 11 14 15 17 18 18 17 18 19 18 19 21 23 24 26 26 26 25 26 27 28 28 29 30 30 30 29 28 27 27 26 26 26 27 27 26 27 26 26 26 27 27 27 27 26 27 27 27 29 31 32 33 35 35 35 35 36 35 34 33 32 31 31 31 31 31 31 30 30 29 29 28 27 26 27 27 27 28 28 27 27 27 27 26
8 10 12 14 15 16 17 18 18 19 20 20 20 22 23 24 25 26 26 27 26 27 28 29 29 29 29 29 29 28 27 26 25 25 25 26 26 26 26 26 25 26 26 26 26 25 25 25 26 26 26 28 31 32 33 34 34 35 36 35 34 34 32 31 31 31 31 30 30 30 29 29 28 28 26 25 25 26 26 27 27 27 26 26 26 26
5 7 9 13 15 15 16 16 16 17 19 21 22 22 23 24 25 26 26 27 26 26 27 28 29 29 29 29 28 27 26 25 24 24 24 25 25 26 25 25 25 25 25 24 24 24 24 23 23 23 23 24 26 29 31 32 33 33 35 35 35 34 33 31 31 31 30 30 29 29 29 28 27 27 26 25 24 24 25 26 26 26 26 26 25 25
4 4 6 9 12 14 16 16 16 17 19 20 21 21 22 24 25 26 27 27 27 26 26 27 28 28 28 28 28 27 26 25 24 24 24 25 25 26 25 25 24 25 24 23 22 23 23 21 21 23 22 22 22 24 27 30 31 32 33 34 35 35 33 31 31 31 30 29 29 28 28 28 27 26 25 25 25 24 24 25 25 25 26 26 25 25
6 5 5 6 8 11 12 14 14 16 17 18 18 19 22 23 24 25 26 27 27 27 26 26 27 28 28 28 27 26 26 24 23 23 24 24 25 26 25 25 24 24 23 21 21 21 21 21 22 23 23 22 21 22 24 26 29 31 33 34 34 34 33 32 31 31 30 29 29 28 27 27 26 26 25 25 25 24 23 24 25 25 26 26 25 25
7 5 5 6 7 8 9 10 12 14 16 18 18 20 21 23 24 25 25 26 28 28 27 27 27 28 28 28 27 26 25 24 23 24 24 24 24 25 25 25 24 23 21 20 20 20 20 21 22 22 22 22 21 22 23 23 25 28 31 33 34 34 33 32 32 31 30 29 29 28 27 27 26 26 26 25 25 24 23 23 23 24 24 25 25 25
8 7 6 7 7 8 9 10 12 13 15 17 19 20 21 22 23 24 24 25 27 28 28 27 27 28 28 28 27 26 25 24 23 24 24 23 22 23 24 24 24 23 21 20 19 19 19 20 21 21 22 22 22 22 23 23 23 25 28 30 32 33 33 32 31 30 29 29 28 28 27 27 26 26 26 26 25 25 24 24 23 23 23 24 24 24
Wind_Direction
219 221 222 223 224 224 223 225 228 228 230 233 232 230 229 229 231 230 229 224 219 225 228 227 229 228 220 218 220 219 218 218 213 210 213 213 208 201 198 195 192 192 192 191 192 193 192 191 192 192 191 190 189 188 187 186 186 186 186 186 184 183 183 184 184 183 182 181 180 179 180 180 179 177 176 174 173 171 169 166 164 163 162 158 156 154
221 224 224 223 224 226 226 226 228 229 231 233 232 232 231 229 230 230 229 225 220 226 231 230 230 230 226 223 221 219 219 219 214 212 215 215 208 200 200 197 195 195 193 191 191 193 193 193 193 192 192 192 190 190 188 187 188 187 188 188 187 186 185 186 187 185 183 183 183 182 182 181 181 180 179 177 175 172 170 170 168 166 165 162 160 159
223 227 226 224 225 227 228 226 227 229 230 229 228 231 231 229 229 229 230 228 223 224 230 231 231 231 230 228 223 219 220 221 218 215 217 216 208 202 202 200 199 198 194 192 192 195 195 193 193 193 193 193 192 191 190 189 189 189 190 190 189 189 188 188 188 187 185 185 185 184 184 183 182 182 181 179 177 175 173 174 173 170 169 168 166 164
226 228 226 225 225 226 227 226 226 227 229 229 227 228 229 228 229 229 228 229 227 226 228 230 232 233 232 231 227 221 219 220 219 217 218 217 210 206 206 203 201 200 197 194 194 197 197 195 195 194 193 193 193 192 191 191 191 191 192 192 192 192 190 190 190 189 188 187 187 186 186 185 184 182 181 180 179 178 177 176 177 176 174 173 173 171
229 229 226 225 225 225 226 225 225 227 227 228 229 229 229 228 230 231 230 230 230 228 228 233 237 234 229 229 229 223 220 221 220 218 218 218 213 209 207 205 203 201 200 197 195 198 199 197 197 196 194 194 193 193 193 192 192 193 193 193 194 194 193 191 191 191 190 189 189 188 187 187 186 183 182 182 181 181 181 179 180 181 180 179 179 178
230 229 226 224 223 224 225 225 224 226 227 228 228 229 231 233 233 234 234 233 233 229 226 229 236 236 228 227 229 224 220 222 222 220 220 218 214 211 208 205 204 204 203 201 199 200 201 200 199 197 196 195 195 195 194 194 194 194 194 195 196 196 195 194 193 193 193 192 192 191 188 188 187 184 183 184 183 183 184 183 183 184 185 185 184 184
229 228 227 225 224 223 225 226 224 224 227 228 227 227 231 234 236 235 234 233 232 232 228 225 230 236 231 226 227 225 222 220 219 221 223 217 211 210 208 205 205 205 204 203 203 203 202 200 199 199 198 197 196 196 195 195 195 195 195 196 197 197 197 196 196 196 195 195 195 194 192 191 190 188 188 188 187 186 187 187 187 187 188 189 188 188
228 227 226 224 225 225 224 225 223 221 226 228 227 228 229 230 233 233 233 233 232 234 236 230 228 233 235 230 225 222 223 221 217 219 221 215 211 211 208 206 207 207 205 204 204 205 203 201 201 200 199 199 198 197 196 196 196 196 196 197 198 198 198 198 198 198 198 197 196 196 195 195 195 194 193 192 191 190 190 190 190 189 190 191 191 191
228 227 227 225 226 226 225 224 223 223 226 228 228 230 230 229 230 231 232 234 234 235 236 232 229 232 234 232 226 221 222 222 218 217 218 215 212 210 207 207 207 207 206 206 205 206 204 203 202 200 200 200 200 198 198 197 197 198 197 197 199 200 199 200 200 200 200 199 198 198 198 198 199 198 196 195 194 193 192 192 192 192 191 192 194 194
230 228 228 227 227 226 226 225 224 225 226 226 228 231 231 231 230 229 231 233 235 236 234 230 229 233 235 230 226 223 223 223 220 218 218 216 211 208 209 211 208 207 207 207 206 206 206 204 202 201 200 200 200 200 199 199 199 199 198 199 200 201 201 202 202 202 201 200 200 200 200 200 201 200 198 196 196 196 196 195 195 194 194 194 195 196
234 232 228 228 228 226 226 226 224 224 225 225 227 230 230 231 231 230 230 231 234 235 233 230 229 233 237 231 226 227 227 222 220 220 219 215 210 208 211 213 210 208 208 209 208 205 207 206 202 201 200 199 200 201 200 200 200 200 199 200 201 202 203 203 204 203 202 202 202 202 203 203 203 202 200 198 197 197 198 199 198 198 198 198 197 197
233 233 230 229 228 226 225 226 224 223 223 223 224 226 228 228 228 230 228 227 231 234 232 230 230 232 234 231 225 227 227 222 219 218 217 215 211 210 213 215 213 210 209 210 209 206 207 206 203 202 200 198 200 201 201 201 201 201 200 201 201 203 204 205 205 205 204 203 203 204 205 205 205 204 203 202 200 199 201 202 202 202 203 203 202 200
231 231 230 229 228 225 224 224 224 222 221 222 222 222 224 224 224 225 225 224 230 233 232 229 229 231 233 232 229 228 225 222 219 216 217 217 214 211 214 215 214 213 211 210 208 207 207 206 203 202 200 199 200 201 201 201 202 202 201 201 203 204 205 206 206 206 205 205 205 205 206 207 207 206 206 205 204 203 205 205 205 205 206 207 206 204
230 229 228 227 226 224 222 221 221 220 219 220 220 220 221 221 221 223 224 226 230 232 231 229 229 231 232 231 230 230 228 225 221 216 217 219 215 213 215 214 213 212 211 209 208 208 208 206 203 201 199 199 200 201 202 202 202 203 202 202 204 205 206 207 207 207 206 206 206 207 208 208 208 208 208 208 207 206 207 208 209 208 208 208 209 207
232 229 225 225 225 222 221 222 222 222 221 221 220 222 223 222 223 225 225 226 230 232 230 226 228 231 231 229 228 229 229 228 226 219 217 220 216 214 214 212 211 212 209 208 208 208 209 207 204 201 200 200 200 201 203 203 203 203 203 203 204 205 206 207 207 207 207 207 207 208 209 209 209 209 210 210 210 209 209 210 211 211 209 209 210 209
236 234 227 224 222 220 221 222 223 224 225 222 220 222 224 223 224 229 232 231 231 234 231 226 227 230 232 231 228 227 226 224 227 224 219 220 217 213 213 210 211 212 210 208 208 208 211 210 204 201 201 201 200 201 203 204 204 204 204 204 205 206 207 207 208 208 208 208 208 209 210 210 210 210 211 211 212 211 211 211 212 213 212 211 210 210
235 233 230 223 220 220 221 221 221 223 225 222 220 222 224 223 225 230 235 235 233 234 231 227 228 228 230 231 226 225 225 222 222 223 220 221 218 214 212 212 212 213 210 209 208 208 210 210 205 201 201 202 201 201 202 203 204 205 204 204 205 206 207 208 209 209 209 208 209 210 211 210 210 211 212 212 213 213 213 213 214 215 215 214 213 211
236 234 231 226 223 222 222 221 220 221 223 223 221 221 222 223 226 228 231 231 229 230 229 228 228 225 225 228 223 221 224 222 220 220 221 221 219 215 214 214 215 213 210 208 208 209 210 209 206 203 203 203 203 202 201 201 203 205 205 205 205 206 207 208 209 210 210 209 210 211 212 211 211 211 213 213 214 214 215 215 216 217 217 217 216 215
237 236 231 226 226 225 223 223 222 221 221 223 225 223 220 221 222 223 226 227 226 227 228 227 229 227 225 225 223 220 221 222 221 219 220 220 219 218 217 216 216 215 211 208 208 210 211 210 208 205 204 205 204 203 202 202 202 204 205 206 206 207 209 209 210 210 211 211 211 212 213 212 212 212 213 214 214 215 215 216 217 218 218 218 218 217
235 234 232 228 227 227 224 222 222 221 219 220 224 225 223 223 222 221 223 225 226 227 227 227 228 228 227 226 226 223 220 220 221 219 219 220 220 220 221 219 217 216 214 210 209 211 210 210 212 209 207 206 206 205 204 203 203 203 204 205 206 208 209 210 211 211 211 212 212 213 213 213 213 213 214 214 214 215 216 217 217 218 219 219 218 218
234 232 233 232 229 227 224 222 221 222 218 216 220 223 223 222 223 223 223 223 225 227 227 228 228 229 231 228 227 226 220 218 219 219 219 219 218 220 220 219 217 216 215 212 210 211 211 211 213 212 210 209 207 206 205 204 204 204 204 206 207 207 208 210 210 211 212 212 213 213 213 214 213 213 214 215 215 215 216 217 218 219 219 219 219 218
232 231 232 232 229 225 223 223 222 223 223 219 219 222 222 221 221 223 222 220 222 225 227 229 229 229 230 224 222 225 223 218 217 217 218 219 219 219 218 217 216 215 215 213 211 211 212 212 212 212 213 212 208 206 206 205 205 205 206 206 207 208 208 209 210 211 213 213 213 213 213 214 214 214 214 215 215 216 216 217 219 219 220 220 220 220
232 231 232 231 229 228 227 226 226 227 227 225 223 223 223 222 221 223 223 220 220 223 225 228 229 228 223 215 216 221 220 218 216 214 216 218 220 220 218 216 215 215 214 213 211 210 211 212 212 212 215 214 210 208 207 207 206 207 207 207 207 208 209 209 210 211 212 213 214 214 214 215 215 215 215 215 216 217 216 217 219 220 221 221 220 221
232 230 232 233 232 234 235 233 230 230 228 226 224 223 223 223 222 223 225 223 222 222 221 224 226 224 218 214 218 218 213 213 214 213 214 216 216 217 217 215 214 214 214 211 210 210 213 214 213 213 216 215 211 209 209 209 208 208 208 208 208 209 209 210 210 210 212 213 214 214 214 215 215 216 216 216 216 217 217 217 218 220 221 222 221 221
232 229 230 232 231 230 230 230 228 225 225 225 224 222 223 225 224 223 224 225 225 225 224 224 223 220 213 208 209 210 209 211 212 212 215 216 214 213 214 213 213 213 212 210 210 213 215 215 214 214 216 215 211 210 210 210 210 209 209 209 210 210 210 210 211 210 211 212 213 213 214 214 215 216 216 216 216 217 217 217 218 220 222 223 222 222
233 230 229 229 228 224 223 224 223 223 225 226 225 224 224 223 223 222 222 223 224 226 226 225 222 219 217 216 212 209 213 215 211 211 213 214 214 214 213 213 213 212 210 210 212 214 214 214 214 215 215 213 211 210 211 211 211 211 210 210 211 211 210 210 211 211 211 211 212 213 213 214 215 215 216 217 217 217 218 218 218 219 221 223 223 223
233 233 231 231 230 229 229 230 229 229 230 228 228 227 223 221 223 223 222 224 223 222 223 223 222 222 223 222 217 213 216 217 213 213 215 214 213 214 214 213 211 209 207 209 212 213 214 214 214 213 212 211 211 211 211 212 212 212 211 211 211 211 211 211 211 211 211 211 212 213 213 214 215 215 216 217 218 218 218 219 219 220 221 222 223 224
233 234 233 232 233 234 237 240 238 235 234 232 232 230 225 225 227 223 221 224 224 221 221 221 221 223 224 218 212 211 213 213 211 210 212 210 205 205 209 209 209 208 208 209 212 213 214 214 213 212 210 210 211 212 212 212 213 213 212 211 211 211 211 211 211 211 212 212 212 213 214 214 215 216 216 217 218 219 219 219 220 220 221 222 223 224
233 234 233 234 235 235 236 238 238 236 234 232 232 232 229 230 230 225 222 223 224 223 221 219 218 219 218 212 207 205 202 203 206 205 204 204 200 199 205 209 209 210 211 212 214 214 214 213 213 213 212 211 213 213 213 213 213 214 214 213 213 212 212 211 211 211 212 212 212 213 214 215 215 216 217 217 218 219 219 220 220 221 221 222 223 224
233 234 234 235 237 237 236 236 236 236 235 232 232 232 230 229 229 226 222 221 224 225 224 221 220 218 216 214 212 209 205 207 210 207 205 206 205 204 208 210 209 210 211 211 212 214 215 215 214 214 213 214 215 215 215 215 213 214 214 214 214 214 213 212 211 212 212 212 213 213 214 215 216 216 217 218 218 219 220 220 221 222 222 222 223 224
233 233 233 234 236 236 236 236 236 236 235 233 231 230 229 228 225 222 220 221 223 225 223 222 222 220 217 217 219 221 217 216 215 212 210 211 210 211 213 213 211 213 214 213 213 214 215 215 215 214 214 215 216 216 216 216 215 214 215 214 215 215 214 213 212 213 213 213 213 213 214 215 216 217 217 218 219 219 220 220 221 222 223 223 223 224
232 234 233 233 234 235 234 235 236 236 236 234 231 227 226 225 223 221 221 222 223 224 223 221 221 220 217 218 223 226 222 219 218 217 215 213 216 220 221 222 221 218 218 219 218 219 221 219 217 215 214 216 217 217 217 216 216 215 215 215 215 215 216 215 214 214 214 214 214 214 215 216 216 217 218 218 219 220 220 221 221 222 223 223 224 224
232 234 234 233 234 234 233 233 234 235 235 232 228 225 224 223 223 224 224 224 224 224 221 219 220 219 219 222 226 226 222 219 219 220 219 221 225 228 227 229 229 224 222 223 223 225 227 225 222 219 217 217 217 217 217 216 216 216 216 216 215 216 217 216 215 215 215 215 215 215 217 218 217 217 218 219 220 221 221 222 222 222 223 223 224 225
233 233 233 233 234 234 232 233 233 232 232 229 225 224 224 224 225 226 226 225 225 224 222 222 222 221 221 224 227 225 223 222 223 223 225 229 233 235 233 232 229 226 226 226 226 228 227 225 226 226 223 220 218 218 218 217 216 217 217 217 216 216 217 217 217 216 216 216 216 216 218 219 219 218 219 219 220 221 222 223 223 223 223 224 225 226
234 233 232 232 233 234 233 232 231 230 230 230 227 224 225 226 226 227 228 227 226 226 226 225 224 223 223 225 226 226 226 227 227 227 230 235 237 237 235 232 228 226 226 227 228 231 230 227 227 228 228 227 222 219 219 218 217 216 217 217 217 216 217 217 217 217 216 217 217 217 218 219 219 220 219 219 220 221 222 223 224 224 225 225 226 228
233 232 232 231 231 232 232 230 231 232 232 231 228 227 227 228 228 228 228 227 225 225 226 226 225 225 226 227 227 227 228 230 230 231 233 236 237 235 233 232 231 230 229 230 232 233 232 231 230 228 229 230 227 224 220 219 218 217 217 217 217 217 217 217 217 217 216 217 217 218 219 220 220 220 220 220 221 222 223 224 224 225 226 226 227 229
231 231 231 231 230 230 231 231 233 235 233 228 225 224 225 226 227 227 227 226 224 222 222 224 224 225 227 228 229 230 231 231 231 232 233 235 236 237 237 236 235 234 233 234 236 235 234 234 233 232 231 230 230 228 223 220 220 219 217 217 217 217 217 217 217 217 216 217 218 218 220 221 221 221 221 222 223 224 225 225 225 225 226 227 228 229
229 229 229 230 230 229 231 233 232 230 228 223 220 220 221 224 227 226 225 225 223 219 220 222 223 225 227 229 231 232 231 230 229 229 231 236 239 240 241 240 237 235 235 236 237 237 237 236 235 235 234 231 230 229 225 221 220 220 218 217 217 217 217 217 217 216 216 216 217 218 220 222 223 223 223 223 224 225 226 226 226 226 227 228 228 229
227 226 226 229 229 228 229 231 229 227 224 220 219 222 223 224 227 227 224 222 221 221 222 223 223 223 225 227 229 230 227 225 223 224 231 239 241 242 243 242 240 237 236 237 239 239 238 238 237 237 237 234 230 228 226 223 220 219 219 218 217 217 218 217 217 216 216 217 217 218 221 223 224 225 225 226 226 227 227 227 227 227 227 228 229 230
223 222 223 226 227 226 228 230 229 227 224 220 221 224 225 224 225 225 222 219 220 224 226 224 223 223 224 225 227 226 224 223 224 228 235 239 241 242 243 243 242 240 238 238 239 240 240 240 239 237 236 233 230 228 226 223 220 219 219 218 218 218 218 218 217 216 217 217 217 219 222 224 225 226 227 228 228 228 228 228 227 227 227 228 230 231
219 218 220 223 224 225 227 229 229 227 223 223 225 227 226 225 223 222 221 219 219 222 225 223 223 224 225 225 225 224 225 226 229 233 237 238 240 242 242 243 243 241 239 239 240 240 240 240 239 238 235 231 229 226 224 222 220 219 218 217 218 219 218 218 217 216 217 218 218 220 222 225 226 227 228 229 230 230 230 229 228 227 227 228 230 231
217 215 218 220 222 223 225 227 229 227 223 227 230 228 225 224 221 219 222 224 221 221 224 223 221 222 223 224 224 225 227 229 231 233 236 237 239 240 241 243 244 241 239 239 239 239 239 239 239 238 234 230 227 224 222 221 219 217 217 217 218 219 218 217 217 217 218 219 219 220 223 225 226 227 228 229 230 230 230 229 228 227 227 228 230 232
222 216 216 217 219 222 224 226 227 224 223 228 229 224 221 221 219 218 223 226 224 222 224 224 220 220 222 223 224 226 228 230 232 233 235 237 238 239 240 241 242 241 240 239 239 239 239 239 240 237 233 229 225 222 220 220 218 216 216 216 217 218 217 216 216 217 218 220 220 221 224 225 226 227 228 229 230 230 230 228 227 226 227 228 230 231
230 219 217 217 218 220 222 222 221 220 222 227 226 221 221 221 220 220 223 225 225 224 224 224 221 221 222 224 225 227 228 230 232 234 235 237 238 239 239 238 239 241 240 239 239 239 239 240 239 236 232 228 224 220 219 219 218 216 216 216 217 218 217 215 216 217 218 220 220 222 224 225 226 227 228 228 229 230 228 227 225 225 226 228 229 229
238 236 231 225 222 225 227 226 228 227 227 228 227 226 225 223 221 221 222 224 226 224 224 225 224 223 223 224 225 226 227 230 233 234 235 237 238 239 238 238 239 239 240 239 237 237 240 239 236 234 231 226 221 219 219 219 217 215 215 216 216 217 216 215 216 218 219 220 221 222 223 224 225 226 226 226 228 227 226 224 224 224 225 226 228 228
255 255 245 233 231 236 235 233 237 237 234 233 231 229 227 225 222 222 223 225 227 226 225 226 226 225 224 223 223 224 226 228 231 233 234 237 238 238 239 238 237 238 238 238 236 236 239 237 231 230 229 223 217 217 218 217 216 215 215 215 215 216 215 215 216 218 219 219 220 221 221 222 222 223 223 223 224 224 223 222 222 223 224 224 225 226
283 267 249 237 236 239 236 233 238 241 240 238 234 229 227 225 223 223 224 226 227 227 226 226 225 224 223 222 221 223 224 226 228 230 233 236 236 237 238 237 236 236 236 236 234 235 237 234 227 225 224 219 215 215 216 215 215 215 214 213 213 214 213 214 215 217 218 218 219 219 219 219 219 219 220 220 220 220 220 220 220 221 222 222 222 223
323 292 262 244 239 240 241 242 246 248 244 238 231 227 225 225 225 226 227 227 226 225 224 225 224 222 220 218 219 220 222 223 224 226 230 232 232 232 234 235 234 232 232 233 232 231 231 230 223 219 218 218 216 215 214 213 212 212 211 210 211 211 211 212 214 215 216 217 217 217 217 217 217 218 219 218 217 218 219 220 221 221 222 223 223 223
321 302 288 266 248 243 244 246 250 249 240 230 227 228 228 227 228 229 229 228 226 224 223 223 221 219 217 217 217 218 219 220 221 222 224 226 226 228 230 231 231 229 229 229 229 227 226 225 221 217 216 216 215 213 212 211 211 210 209 208 208 208 208 210 213 214 215 215 215 215 216 216 217 218 218 217 217 219 221 222 223 224 225 226 227 227
332 314 304 287 262 251 251 252 252 246 235 230 232 233 231 229 229 229 229 228 225 223 223 223 220 218 217 216 215 215 217 218 219 221 223 224 225 226 227 228 229 228 226 226 227 224 222 221 220 217 215 214 213 210 210 210 209 209 208 207 206 206 207 209 211 212 213 214 214 215 216 216 217 217 218 218 219 221 222 223 225 226 226 227 228 229
342 324 308 295 278 270 270 268 260 248 239 237 238 236 233 230 229 228 228 227 225 222 222 222 220 217 216 215 214 214 214 215 216 219 222 223 225 226 225 225 226 225 224 224 225 224 220 218 217 216 213 212 210 209 208 207 206 206 206 205 204 204 206 208 210 211 212 213 214 215 215 216 216 217 219 221 222 222 222 222 224 226 227 227 227 228